Bellefontaine, OH

8:48 AM EDT on May 25, 2017 (GMT -0400)
Bellefontaine

Weather History for KEDJ - November, 2012

Change the Weather History Date:

Sunday, November 4, 2012

  Actual Average (KDLZ) Record (KDLZ)
Temperature  
Mean Temperature 34 °F -  
Max Temperature 39 °F 55 °F 78 °F (1987)
Min Temperature 28 °F 35 °F 17 °F (1991)
Degree Days  
Heating Degree Days 32    
Moisture  
Dew Point 32 °F    
Average Humidity 91    
Maximum Humidity 100    
Minimum Humidity 75    
Precipitation  
Precipitation 0.00 in - - ()
Sea Level Pressure  
Sea Level Pressure 30.12 in    
Wind  
Wind Speed 2 mph (North)    
Max Wind Speed 8 mph    
Max Gust Speed -    
Visibility 9 miles    
Events      
Averages and records for this station are not official NWS values.
T = Trace of Precipitation, MM = Missing Value Source: NWS Daily Summary

Daily Weather History Graph

Daily Weather History Graph

Search for Another Location

Airport or City:

Trip Planner

Search our weather history database for the weather conditions in past years. The results will help you decide how hot, cold, wet, or windy it might be!

Date:

Astronomy

Nov. 04, 2012 Rise Set
Actual Time 7:09 AM EST 5:28 PM EST
Civil Twilight 6:40 AM EST 5:56 PM EST
Nautical Twilight 6:08 AM EST 6:28 PM EST
Astronomical Twilight 5:36 AM EST 7:00 PM EST
Moon 10:05 PM EST (11/4) 11:52 AM EST (11/4)
Length of Visible Light 11h 16m
Length of Day
10h 19m
Waning Gibbous, 72% of the Moon is Illuminated
Nov 4
Waning Gibbous
Nov 6
Last Quarter
Nov 13
New
Nov 20
First Quarter
Nov 28
Full

Hourly Weather History & Observations

Time (EST) Temp. Windchill Dew Point Humidity Pressure Visibility Wind Dir Wind Speed Gust Speed Precip Events Conditions
12:10 AM 37.4 °F 34.9 °F 32.0 °F 81% 30.11 in 10.0 mi NNE 3.5 mph - 0.00 in   Mostly Cloudy
12:30 AM 37.4 °F - 32.0 °F 81% 30.10 in 10.0 mi Calm Calm - 0.00 in   Mostly Cloudy
12:50 AM 35.6 °F - 32.0 °F 87% 30.10 in 10.0 mi Calm Calm - 0.00 in   Partly Cloudy
1:10 AM 33.8 °F - 32.0 °F 93% 30.11 in 10.0 mi Calm Calm - 0.00 in   Scattered Clouds
1:30 AM 33.8 °F 29.6 °F 32.0 °F 93% 30.11 in 10.0 mi NNW 4.6 mph - 0.00 in   Scattered Clouds
1:50 AM 33.8 °F - 32.0 °F 93% 30.11 in 10.0 mi Calm Calm - 0.00 in   Scattered Clouds
1:10 AM 32.0 °F - 32.0 °F 100% 30.11 in 10.0 mi Calm Calm - 0.00 in   Clear
1:30 AM 33.8 °F - 32.0 °F 93% 30.11 in 2.5 mi Calm Calm - 0.00 in   Scattered Clouds
1:50 AM 33.8 °F - 32.0 °F 93% 30.12 in 10.0 mi Calm Calm - 0.00 in   Overcast
2:10 AM 33.8 °F - 32.0 °F 93% 30.12 in 10.0 mi Calm Calm - 0.00 in   Mostly Cloudy
2:30 AM 33.8 °F - 32.0 °F 93% 30.11 in 10.0 mi Calm Calm - 0.00 in   Scattered Clouds
2:50 AM 32.0 °F - 32.0 °F 100% 30.11 in 10.0 mi Calm Calm - 0.00 in   Partly Cloudy
3:10 AM 32.0 °F - 30.2 °F 93% 30.11 in 10.0 mi Calm Calm - 0.00 in   Clear
3:30 AM 32.0 °F - 32.0 °F 100% 30.10 in 10.0 mi Calm Calm - 0.00 in   Clear
3:50 AM 32.0 °F - 32.0 °F 100% 30.10 in 10.0 mi Calm Calm - 0.00 in   Clear
4:10 AM 32.0 °F - 32.0 °F 100% 30.10 in 10.0 mi Calm Calm - 0.00 in   Clear
4:30 AM 30.2 °F - 30.2 °F 100% 30.10 in 10.0 mi Calm Calm - 0.00 in   Clear
4:50 AM 30.2 °F - 30.2 °F 100% 30.11 in 10.0 mi Calm Calm - 0.00 in   Clear
5:10 AM 28.4 °F - 28.4 °F 100% 30.11 in 10.0 mi Calm Calm - 0.00 in   Clear
5:30 AM 30.2 °F - 30.2 °F 100% 30.12 in 10.0 mi Calm Calm - 0.00 in   Clear
5:50 AM 30.2 °F - 30.2 °F 100% 30.12 in 10.0 mi Calm Calm - 0.00 in   Clear
6:10 AM 28.4 °F - 28.4 °F 100% 30.11 in 7.0 mi Calm Calm - 0.00 in   Clear
6:30 AM 30.2 °F - 30.2 °F 100% 30.12 in 7.0 mi Calm Calm - 0.00 in   Clear
6:50 AM - - - N/A% 30.12 in 6.0 mi Calm Calm - 0.00 in   Clear
7:10 AM 28.4 °F - 28.4 °F 100% 30.12 in 5.0 mi Calm Calm - 0.00 in   Clear
7:30 AM - - - N/A% 30.13 in 9.0 mi Calm Calm - 0.00 in   Clear
7:50 AM 28.4 °F - 28.4 °F 100% 30.14 in 8.0 mi Calm Calm - 0.00 in   Scattered Clouds
8:10 AM 30.2 °F 26.7 °F 30.2 °F 100% 30.14 in 8.0 mi North 3.5 mph - 0.00 in   Mostly Cloudy
8:30 AM 30.2 °F - 30.2 °F 100% 30.14 in 6.0 mi Calm Calm - 0.00 in   Overcast
8:50 AM 32.0 °F 26.4 °F 32.0 °F 100% 30.14 in 2.5 mi North 5.8 mph - 0.00 in   Overcast
9:10 AM 33.8 °F 29.6 °F 33.8 °F 100% 30.14 in 5.0 mi North 4.6 mph - 0.00 in   Overcast
9:30 AM 33.8 °F 27.7 °F 33.8 °F 100% 30.14 in 5.0 mi North 6.9 mph - 0.00 in   Overcast
9:50 AM 33.8 °F 29.6 °F 33.8 °F 100% 30.14 in 6.0 mi NNW 4.6 mph - 0.00 in   Overcast
10:10 AM 35.6 °F 31.7 °F 35.6 °F 100% 30.14 in 7.0 mi NNW 4.6 mph - 0.00 in   Overcast
10:30 AM 35.6 °F 30.7 °F 35.6 °F 100% 30.14 in 9.0 mi NNW 5.8 mph - 0.00 in   Overcast
10:50 AM 35.6 °F 30.7 °F 35.6 °F 100% 30.13 in 10.0 mi North 5.8 mph - 0.00 in   Overcast
11:10 AM 37.4 °F 32.8 °F 35.6 °F 93% 30.14 in 10.0 mi North 5.8 mph - 0.00 in   Overcast
11:30 AM 37.4 °F 33.8 °F 33.8 °F 87% 30.14 in 10.0 mi NNW 4.6 mph - 0.00 in   Overcast
11:50 AM 37.4 °F 33.8 °F 33.8 °F 87% 30.14 in 10.0 mi NNW 4.6 mph - 0.00 in   Overcast
12:10 PM 39.2 °F 34.2 °F 33.8 °F 81% 30.13 in 10.0 mi North 6.9 mph - 0.00 in   Overcast
12:30 PM 39.2 °F 35.0 °F 33.8 °F 81% 30.13 in 10.0 mi NNW 5.8 mph - 0.00 in   Overcast
12:50 PM 39.2 °F 34.2 °F 33.8 °F 81% 30.13 in 10.0 mi North 6.9 mph - 0.00 in   Overcast
1:10 PM 39.2 °F 35.9 °F 33.8 °F 81% 30.12 in 10.0 mi NNW 4.6 mph - 0.00 in   Overcast
1:30 PM 39.2 °F 35.0 °F 32.0 °F 75% 30.12 in 10.0 mi NNW 5.8 mph - 0.00 in   Overcast
1:50 PM 39.2 °F 35.0 °F 32.0 °F 75% 30.12 in 10.0 mi NNW 5.8 mph - 0.00 in   Mostly Cloudy
2:10 PM 39.2 °F 35.9 °F 32.0 °F 75% 30.12 in 10.0 mi North 4.6 mph - 0.00 in   Overcast
2:30 PM 39.2 °F 37.0 °F 32.0 °F 75% 30.12 in 10.0 mi NW 3.5 mph - 0.00 in   Overcast
2:50 PM 39.2 °F 35.9 °F 32.0 °F 75% 30.11 in 10.0 mi NW 4.6 mph - 0.00 in   Overcast
3:10 PM 39.2 °F 33.6 °F 32.0 °F 75% 30.11 in 10.0 mi North 8.1 mph - 0.00 in   Overcast
3:30 PM 39.2 °F 33.6 °F 32.0 °F 75% 30.11 in 10.0 mi North 8.1 mph - 0.00 in   Overcast
3:50 PM 39.2 °F 33.6 °F 32.0 °F 75% 30.11 in 10.0 mi North 8.1 mph - 0.00 in   Overcast
4:10 PM 39.2 °F 34.2 °F 32.0 °F 75% 30.11 in 10.0 mi North 6.9 mph - 0.00 in   Overcast
4:30 PM 37.4 °F 31.4 °F 32.0 °F 81% 30.11 in 10.0 mi North 8.1 mph - 0.00 in   Overcast
4:50 PM 37.4 °F 31.4 °F 32.0 °F 81% 30.11 in 10.0 mi North 8.1 mph - 0.00 in   Overcast
5:10 PM 37.4 °F 31.4 °F 32.0 °F 81% 30.11 in 10.0 mi North 8.1 mph - 0.00 in   Overcast
5:30 PM 37.4 °F 31.4 °F 32.0 °F 81% 30.12 in 10.0 mi NNW 8.1 mph - 0.00 in   Overcast
5:50 PM 37.4 °F 31.4 °F 32.0 °F 81% 30.12 in 10.0 mi North 8.1 mph - 0.00 in   Overcast
6:10 PM 35.6 °F 29.9 °F 32.0 °F 87% 30.12 in 10.0 mi NNW 6.9 mph - 0.00 in   Overcast
6:30 PM 35.6 °F 30.7 °F 32.0 °F 87% 30.13 in 10.0 mi North 5.8 mph - 0.00 in   Overcast
6:50 PM 35.6 °F 30.7 °F 32.0 °F 87% 30.13 in 10.0 mi North 5.8 mph - 0.00 in   Overcast
7:10 PM 35.6 °F 29.9 °F 32.0 °F 87% 30.14 in 10.0 mi NNW 6.9 mph - 0.00 in   Overcast
7:30 PM 35.6 °F 31.7 °F 32.0 °F 87% 30.13 in 10.0 mi North 4.6 mph - 0.00 in   Overcast
7:50 PM 33.8 °F 28.6 °F 32.0 °F 93% 30.13 in 10.0 mi North 5.8 mph - 0.00 in   Mostly Cloudy
8:10 PM 32.0 °F 28.7 °F 32.0 °F 100% 30.13 in 10.0 mi NNW 3.5 mph - 0.00 in   Overcast
8:30 PM 33.8 °F - 32.0 °F 93% 30.13 in 10.0 mi Calm Calm - 0.00 in   Mostly Cloudy
8:50 PM 32.0 °F - 30.2 °F 93% 30.13 in 10.0 mi Calm Calm - 0.00 in   Partly Cloudy
9:10 PM 32.0 °F - 30.2 °F 93% 30.13 in 10.0 mi Calm Calm - 0.00 in   Clear
9:30 PM 32.0 °F - 30.2 °F 93% 30.13 in 10.0 mi Calm Calm - 0.00 in   Clear
9:50 PM 32.0 °F - 30.2 °F 93% 30.13 in 10.0 mi Calm Calm - 0.00 in   Partly Cloudy
10:10 PM 32.0 °F - 30.2 °F 93% 30.13 in 10.0 mi Calm Calm - 0.00 in   Mostly Cloudy
10:30 PM 32.0 °F 28.7 °F 30.2 °F 93% 30.13 in 10.0 mi NNE 3.5 mph - 0.00 in   Mostly Cloudy
10:50 PM 32.0 °F 28.7 °F 30.2 °F 93% 30.13 in 10.0 mi North 3.5 mph - 0.00 in   Overcast